Hourly Data Report for October 18, 2002

SHERBROOKE A
QUEBEC

45°26'00.000" N
71°41'00.000" W
241.40 m
7028124
71610
YSC

Download Data

Hourly Data (October 2002)
Hourly Data Report for October 18, 2002
TIME
LST
Temp Definition
°C
Dew Point Definition
°C
Rel Hum Definition
%
Precip. Amount Definition
mm

Wind Dir Definition
10's deg

Wind Spd Definition
km/h
Visibility Definition
km
Stn Press Definition
kPa
Hmdx Definition


Wind Chill Definition


Weather Definition


00:00 4.4 3.9 97     0 3.1 98.28     Rain
01:00 4.2 3.9 98     0 2.4 98.27     Rain
02:00 4.3 3.9 97   29 4 2.1 98.27     Rain
03:00 3.7 3.2 97   26 7 11.3 98.31     Rain
04:00 3.6 3.0 96   24 7 15.0 98.34     Rain
05:00 3.4 2.9 97   17 4 15.0 98.37      
06:00 3.5 2.8 95   23 6 15.0 98.41      
07:00 3.1 1.9 92   25 15 24.1 98.48     Cloudy
08:00 3.2 2.1 92   26 11 24.1 98.53     Cloudy
09:00 4.1 1.3 82   25 20 24.1 98.57     Mostly Cloudy
10:00 4.0 -0.3 74   25 22 24.1 98.63     Mainly Clear
11:00 5.9 0.6 69   25 19 24.1 98.67     Mainly Clear
12:00 5.0 -2.8 57   26 20 24.1 98.65     Mainly Clear
13:00 5.8 -3.0 53   25 20 24.1 98.67     Mainly Clear
14:00 6.2 -3.2 51   27 22 24.1 98.69     Mainly Clear
15:00 6.5 -3.6 48   25 22 24.1 98.75     Mainly Clear
16:00 5.7 -4.1 49   28 22 24.1 98.78     Mainly Clear
17:00 2.8 -4.1 60   27 9 15.0 98.84      
18:00 -0.6 -3.7 80   15 4 15.0 98.89   -2  
19:00 0.3 -4.1 72   23 7 15.0 98.93      
20:00 -0.7 -3.1 84   14 6 15.0 98.93   -3  
21:00 -1.8 -3.4 89   6 6 15.0 98.90   -4  
22:00 -3.2 -4.9 88   7 4 15.0 98.90   -5  
23:00 -1.2 -2.6 90   8 6 15.0 98.89   -3  

Notes on Data Quality.

Legend

  • E = Estimated
  • M = Missing
  • NA = Not Available*
  • [empty] = Indicates an unobserved value
Date modified: